When you browse on this site, cookies collect data to enhance your experience and personalize the content and advertising you see.
Visit our Privacy Policy to learn more. By continuing to use the site, you agree to this use of cookies and data.
  • In Austria
  • List of Countries
  • For 7 days
  • Water Temperature
  • Satellite Maps
  • Weather Map
  • News
  • Weather Widgets
  • user-avatar
    Login

    Hourly Weather Eisenstadt

    Today, 21 May, Tuesday

    Time Temperature Precipitation Wind Pressure Humidity
    00:00 +9°C° 0 mm 2 mps 714 mmHg 91%
    01:00 +8°C° 0 mm 2 mps 713 mmHg 93%
    02:00 +9°C° 0 mm 1 mps 714 mmHg 94%
    03:00 +9°C° 0 mm 1 mps 714 mmHg 94%
    04:00 +9°C° 0 mm 1 mps 714 mmHg 95%
    05:00 +10°C° 0 mm 1 mps 714 mmHg 89%
    06:00 +12°C° 0 mm 1 mps 714 mmHg 84%
    07:00 +14°C° 0 mm 1 mps 714 mmHg 78%
    08:00 +14°C° 0.2 mm 1 mps 715 mmHg 78%
    09:00 +15°C° 0.2 mm 1 mps 715 mmHg 78%
    10:00 +15°C° 0.2 mm 1 mps 715 mmHg 78%
    11:00 +15°C° 0.7 mm 1 mps 716 mmHg 80%
    12:00 +15°C° 0.7 mm 1 mps 716 mmHg 81%
    13:00 +15°C° 0.7 mm 1 mps 716 mmHg 82%
    14:00 +16°C° 0.5 mm 1 mps 716 mmHg 79%
    15:00 +16°C° 0.5 mm 2 mps 716 mmHg 77%
    16:00 +17°C° 0.5 mm 2 mps 716 mmHg 74%
    17:00 +16°C° 0.5 mm 2 mps 716 mmHg 77%
    18:00 +15°C° 0.5 mm 1 mps 716 mmHg 81%
    19:00 +14°C° 0.5 mm 1 mps 716 mmHg 84%
    20:00 +14°C° 0 mm 1 mps 717 mmHg 85%
    21:00 +13°C° 0 mm 1 mps 717 mmHg 87%
    22:00 +13°C° 0 mm 1 mps 717 mmHg 88%
    23:00 +12°C° 0.2 mm 1 mps 717 mmHg 89%

    Tomorrow, 22 May, Wednesday

    Time Temperature Precipitation Wind Pressure Humidity
    00:00 +12°C° 0.2 mm 1 mps 718 mmHg 89%
    01:00 +12°C° 0.2 mm 1 mps 718 mmHg 90%
    02:00 +12°C° 0.1 mm 1 mps 718 mmHg 90%
    03:00 +12°C° 0.1 mm 1 mps 718 mmHg 89%
    04:00 +12°C° 0.1 mm 1 mps 718 mmHg 89%
    05:00 +13°C° 0 mm 2 mps 718 mmHg 85%
    06:00 +14°C° 0 mm 2 mps 718 mmHg 82%
    07:00 +15°C° 0 mm 2 mps 719 mmHg 78%
    08:00 +15°C° 0 mm 2 mps 719 mmHg 74%
    09:00 +16°C° 0 mm 3 mps 719 mmHg 70%
    10:00 +17°C° 0 mm 3 mps 720 mmHg 66%
    11:00 +17°C° 0.1 mm 3 mps 720 mmHg 64%
    12:00 +17°C° 0.1 mm 3 mps 720 mmHg 62%
    13:00 +18°C° 0.1 mm 3 mps 720 mmHg 61%
    14:00 +18°C° 0 mm 3 mps 720 mmHg 60%
    15:00 +18°C° 0 mm 3 mps 720 mmHg 59%
    16:00 +19°C° 0 mm 3 mps 720 mmHg 58%
    17:00 +17°C° 0.1 mm 3 mps 721 mmHg 64%
    18:00 +16°C° 0.1 mm 3 mps 721 mmHg 70%
    19:00 +15°C° 0.1 mm 2 mps 721 mmHg 76%
    20:00 +14°C° 0 mm 2 mps 721 mmHg 79%
    21:00 +13°C° 0 mm 2 mps 721 mmHg 81%
    22:00 +12°C° 0 mm 2 mps 722 mmHg 83%
    23:00 +12°C° 0 mm 2 mps 722 mmHg 85%

    Day after tomorrow, 23 May, Thursday

    Time Temperature Precipitation Wind Pressure Humidity
    00:00 +10°C° 0 mm 2 mps 722 mmHg 86%
    01:00 +11°C° 0 mm 1 mps 722 mmHg 87%
    02:00 +11°C° 0 mm 1 mps 722 mmHg 88%
    03:00 +11°C° 0 mm 1 mps 722 mmHg 88%
    04:00 +10°C° 0 mm 2 mps 722 mmHg 88%
    05:00 +12°C° 0 mm 2 mps 722 mmHg 82%
    06:00 +14°C° 0 mm 2 mps 723 mmHg 77%
    07:00 +14°C° 0 mm 3 mps 723 mmHg 71%
    08:00 +16°C° 0 mm 3 mps 723 mmHg 65%
    09:00 +17°C° 0 mm 4 mps 723 mmHg 58%
    10:00 +18°C° 0 mm 4 mps 723 mmHg 52%
    11:00 +19°C° 0 mm 5 mps 723 mmHg 49%
    12:00 +19°C° 0 mm 5 mps 723 mmHg 47%
    13:00 +20°C° 0 mm 5 mps 723 mmHg 44%
    14:00 +20°C° 0 mm 5 mps 723 mmHg 45%
    15:00 +20°C° 0 mm 5 mps 722 mmHg 46%
    16:00 +19°C° 0 mm 5 mps 722 mmHg 47%
    17:00 +17°C° 0 mm 5 mps 722 mmHg 53%
    18:00 +15°C° 0 mm 4 mps 722 mmHg 59%
    19:00 +14°C° 0 mm 3 mps 722 mmHg 65%
    20:00 +12°C° 0 mm 3 mps 722 mmHg 66%
    21:00 +11°C° 0 mm 3 mps 723 mmHg 68%
    22:00 +10°C° 0 mm 2 mps 723 mmHg 69%
    23:00 +9°C° 0 mm 2 mps 723 mmHg 71%

    24 May, Friday

    Time Temperature Precipitation Wind Pressure Humidity
    00:00 +9°C° 0 mm 2 mps 723 mmHg 72%
    01:00 +9°C° 0 mm 2 mps 722 mmHg 74%
    02:00 +9°C° 0 mm 2 mps 722 mmHg 76%
    03:00 +8°C° 0 mm 2 mps 722 mmHg 77%
    04:00 +8°C° 0 mm 2 mps 722 mmHg 79%
    05:00 +10°C° 0 mm 2 mps 722 mmHg 74%
    06:00 +13°C° 0 mm 2 mps 722 mmHg 69%
    07:00 +15°C° 0 mm 2 mps 722 mmHg 64%
    08:00 +16°C° 0 mm 2 mps 722 mmHg 60%
    09:00 +17°C° 0 mm 3 mps 722 mmHg 56%
    10:00 +19°C° 0 mm 3 mps 722 mmHg 51%
    11:00 +19°C° 0 mm 3 mps 721 mmHg 51%
    12:00 +19°C° 0 mm 2 mps 721 mmHg 51%
    13:00 +19°C° 0 mm 2 mps 721 mmHg 51%
    14:00 +19°C° 0 mm 2 mps 720 mmHg 53%
    15:00 +19°C° 0 mm 2 mps 720 mmHg 54%
    16:00 +19°C° 0 mm 2 mps 719 mmHg 55%
    17:00 +19°C° 0 mm 1 mps 719 mmHg 62%
    18:00 +18°C° 0 mm 1 mps 719 mmHg 68%
    19:00 +16°C° 0 mm 1 mps 719 mmHg 75%
    20:00 +15°C° 0 mm 1 mps 719 mmHg 77%
    21:00 +13°C° 0 mm 0 mps 719 mmHg 79%
    22:00 +12°C° 0 mm 0 mps 719 mmHg 82%
    23:00 +12°C° 0 mm 1 mps 719 mmHg 83%

    25 May, Saturday

    Time Temperature Precipitation Wind Pressure Humidity
    00:00 +12°C° 0 mm 1 mps 719 mmHg 84%
    01:00 +12°C° 0 mm 1 mps 719 mmHg 85%
    02:00 +12°C° 0 mm 1 mps 718 mmHg 86%
    03:00 +11°C° 0 mm 1 mps 718 mmHg 87%
    04:00 +11°C° 0 mm 1 mps 718 mmHg 88%
    05:00 +13°C° 0 mm 1 mps 718 mmHg 83%
    06:00 +15°C° 0 mm 1 mps 719 mmHg 78%
    07:00 +15°C° 0 mm 0 mps 719 mmHg 72%
    08:00 +19°C° 0 mm 1 mps 719 mmHg 67%
    09:00 +20°C° 0 mm 1 mps 719 mmHg 63%
    10:00 +22°C° 0 mm 1 mps 719 mmHg 58%
    11:00 +21°C° 0.2 mm 2 mps 719 mmHg 58%
    12:00 +21°C° 0.2 mm 2 mps 719 mmHg 58%
    13:00 +23°C° 0.2 mm 2 mps 719 mmHg 58%
    14:00 +23°C° 0.7 mm 1 mps 719 mmHg 61%
    15:00 +22°C° 0.7 mm 1 mps 718 mmHg 63%
    16:00 +22°C° 0.7 mm 1 mps 718 mmHg 66%
    17:00 +21°C° 0.4 mm 1 mps 718 mmHg 72%
    18:00 +20°C° 0.4 mm 1 mps 718 mmHg 77%
    19:00 +18°C° 0.4 mm 1 mps 718 mmHg 83%
    20:00 +18°C° 0.6 mm 1 mps 718 mmHg 85%
    21:00 +16°C° 0.6 mm 1 mps 719 mmHg 88%
    22:00 +16°C° 0.6 mm 1 mps 719 mmHg 90%
    23:00 +15°C° 1.5 mm 1 mps 719 mmHg 91%

    26 May, Sunday

    Time Temperature Precipitation Wind Pressure Humidity
    00:00 +15°C° 1.5 mm 2 mps 719 mmHg 93%
    01:00 +15°C° 1.5 mm 2 mps 719 mmHg 94%
    02:00 +14°C° 0.5 mm 2 mps 719 mmHg 94%
    03:00 +14°C° 0.5 mm 2 mps 719 mmHg 94%
    04:00 +13°C° 0.5 mm 2 mps 719 mmHg 93%
    05:00 +14°C° 0 mm 2 mps 720 mmHg 91%
    06:00 +15°C° 0 mm 2 mps 720 mmHg 88%
    07:00 +16°C° 0 mm 2 mps 720 mmHg 86%
    08:00 +16°C° 0.1 mm 3 mps 720 mmHg 81%
    09:00 +17°C° 0.1 mm 3 mps 721 mmHg 75%
    10:00 +18°C° 0.1 mm 3 mps 721 mmHg 70%
    11:00 +19°C° 0 mm 3 mps 721 mmHg 63%
    12:00 +20°C° 0 mm 3 mps 721 mmHg 56%
    13:00 +22°C° 0 mm 4 mps 721 mmHg 49%
    14:00 +22°C° 0.1 mm 3 mps 721 mmHg 50%
    15:00 +22°C° 0.1 mm 3 mps 721 mmHg 52%
    16:00 +22°C° 0.1 mm 3 mps 720 mmHg 53%
    17:00 +20°C° 0.2 mm 3 mps 721 mmHg 61%
    18:00 +18°C° 0.2 mm 2 mps 721 mmHg 70%
    19:00 +16°C° 0.2 mm 2 mps 721 mmHg 78%
    20:00 +15°C° 0 mm 2 mps 721 mmHg 80%
    21:00 +14°C° 0 mm 2 mps 721 mmHg 81%
    22:00 +13°C° 0 mm 2 mps 721 mmHg 83%
    23:00 +13°C° 0 mm 2 mps 721 mmHg 82%
    Show more